Content
SEND FEEDBACK

Daily
Averages
Monthly
Summary
United States of America

LATHAM, NEW YORK


Home > North America > United States > New York
Elevation: 280 feet     Latitude: 42 45N     Longitude: 073 48W

WEATHER
 
SELECT A DAY
Number of Records: 211,028;   Date Range: 1/1/95 - 12/23/14
 
SHARE

PRINT THIS DATA

[ ← Previous Day ]
WEATHER ALMANAC - FEBRUARY 13, 2013
[ Next Day → ]
[ °C ]   °F
Weather ElementAverageHighLow
Temperature33.3 °F37.9 °F (12:51 pm)30 °F (6:51 am)
Dewpoint21.8 °F26.1 °F (6:51 am)18 °F (10:51 am)
Humidity63.6 %85 % (6:51 am)45 % (12:51 pm)
Barometer29.84 in29.91 in (1:51 am)29.75 in (6:51 pm)
Wind Speed3.1 mph11.5 mph (2:04 am)
Weather ElementAverage
Visibility10 mi
Wind DirectionESE (120.4 °)

Weather ElementTotal
Precipitation---
Heating Degree Days31.1 (Base 65)
Averaged from 25 records on February 13, 2013
WEATHER CONDITIONS BREAKOUT
WIND DIRECTION BREAKOUT
WEATHER BY HOUR - FEBRUARY 13, 2013
[ °C ]   °F
Local TimeTemperatureDewpointHumidityBarometerVisibilityWind DirectionWind SpeedGust SpeedPrecipitationEventsConditions
1:30 AM32.0 °F23.0 °F69 %29.90 in10.0 miNNW (330°)5.8 mph0.00 inSnowLight Snow
1:51 AM32.0 °F23.0 °F69 %29.91 in10.0 miWNW (290°)10.4 mph0.00 inSnowLight Snow
2:04 AM32.0 °F24.8 °F75 %29.90 in10.0 miWest (270°)11.5 mph0.00 inSnowLight Snow
2:51 AM32.0 °F24.1 °F73 %29.91 in10.0 miWest (280°)5.8 mph0.00 inOvercast
3:51 AM32.0 °F24.1 °F73 %29.91 in10.0 miWest (280°)3.5 mphOvercast
4:51 AM32.0 °F25.0 °F75 %29.91 in10.0 miCalm0.00 inSnowLight Snow
5:51 AM32.0 °F25.0 °F75 %29.90 in10.0 miCalm0.00 inSnowLight Snow
6:51 AM30.0 °F26.1 °F85 %29.89 in10.0 miCalm0.00 inOvercast
7:51 AM30.9 °F25.0 °F79 %29.90 in10.0 miCalmOvercast
8:51 AM33.1 °F25.0 °F72 %29.89 in10.0 miCalm0.00 inSnowLight Snow
9:51 AM34.0 °F25.0 °F70 %29.88 in10.0 miCalm0.00 inOvercast
10:51 AM35.1 °F18.0 °F50 %29.88 in10.0 miWNW (290°)4.6 mphOvercast
11:51 AM36.0 °F21.0 °F55 %29.86 in10.0 miCalmMostly Cloudy
12:51 PM37.9 °F18.0 °F45 %29.84 in10.0 miVariable4.6 mphMostly Cloudy
1:51 PM37.9 °F19.0 °F47 %29.81 in10.0 miEast (90°)3.5 mphMostly Cloudy
2:51 PM37.9 °F19.0 °F47 %29.79 in10.0 miCalmPartly Cloudy
3:51 PM37.9 °F19.9 °F48 %29.78 in10.0 miNE (50°)3.5 mphPartly Cloudy
4:51 PM36.0 °F19.9 °F52 %29.76 in10.0 miNE (50°)4.6 mphScattered Clouds
5:51 PM34.0 °F19.0 °F54 %29.76 in10.0 miNNE (20°)3.5 mphMostly Cloudy
6:51 PM33.1 °F19.9 °F59 %29.75 in10.0 miNNE (30°)4.6 mphMostly Cloudy
7:51 PM32.0 °F19.9 °F61 %29.76 in10.0 miCalmMostly Cloudy
8:51 PM32.0 °F19.9 °F61 %29.77 in10.0 miNorth (350°)3.5 mphOvercast
9:51 PM30.9 °F21.0 °F67 %29.76 in10.0 miCalmOvercast
10:51 PM30.9 °F19.9 °F64 %29.75 in10.0 miNorth (350°)3.5 mphOvercast
11:51 PM30.0 °F19.9 °F66 %29.75 in10.0 miNNW (330°)3.5 mphOvercast
Hourly data recorded from KALB, located miles away from Latham, New York







STORIES FROM OUR PARTNERS